Time,TemperatureF,DewpointF,PressureIn,WindDirection,WindDirectionDegrees,WindSpeedMPH,WindSpeedGustMPH,Humidity,HourlyPrecipIn,Conditions,Clouds,dailyrainin,SoftwareType,DateUTC
2013-02-16 00:00:00,35.2,8.4,27.40,East,94,2.7,3.6,32,0.00,,---,0.00,VWS V14.01,2013-02-16 05:00:00,
2013-02-16 00:05:00,35.2,7.7,27.40,WSW,245,4.9,5.4,31,0.00,,---,0.00,VWS V14.01,2013-02-16 05:05:00,
2013-02-16 00:10:00,35.1,6.8,27.40,WSW,253,3.1,3.1,30,0.00,,---,0.00,VWS V14.01,2013-02-16 05:10:00,
2013-02-16 00:15:00,34.9,4.3,27.40,South,173,2.7,2.7,27,0.00,,---,0.00,VWS V14.01,2013-02-16 05:15:00,
2013-02-16 00:20:00,34.7,4.2,27.40,SSE,162,0.0,2.2,27,0.00,,---,0.00,VWS V14.01,2013-02-16 05:20:00,
2013-02-16 00:23:00,34.5,4.0,27.40,NW,311,2.2,2.2,27,0.00,,---,0.00,VWS V14.01,2013-02-16 05:23:00,
2013-02-16 00:28:00,34.3,2.2,27.40,WSW,247,3.1,3.1,25,0.00,,---,0.00,VWS V14.01,2013-02-16 05:28:00,
2013-02-16 00:33:00,34.3,2.2,27.40,West,260,6.3,6.3,25,0.00,,---,0.00,VWS V14.01,2013-02-16 05:33:00,
2013-02-16 00:38:00,34.2,-0.7,27.37,SW,216,2.7,2.7,22,0.00,,---,0.00,VWS V14.01,2013-02-16 05:38:00,
2013-02-16 00:43:00,34.0,-0.9,27.37,NNE,12,5.4,5.8,22,0.00,,---,0.00,VWS V14.01,2013-02-16 05:43:00,
2013-02-16 00:48:00,33.8,-1.0,27.37,SSE,155,2.7,4.9,22,0.00,,---,0.00,VWS V14.01,2013-02-16 05:48:00,
2013-02-16 00:53:00,33.8,-3.0,27.37,SE,138,4.0,5.4,20,0.00,,---,0.00,VWS V14.01,2013-02-16 05:53:00,
2013-02-16 00:58:00,33.8,-1.0,27.37,NE,54,5.4,6.3,22,0.00,,---,0.00,VWS V14.01,2013-02-16 05:58:00,
2013-02-16 01:03:00,33.6,-3.2,27.37,ENE,59,2.2,2.2,20,0.00,,---,0.00,VWS V14.01,2013-02-16 06:03:00,
2013-02-16 01:08:00,33.6,-3.2,27.37,WSW,254,2.7,5.8,20,0.00,,---,0.00,VWS V14.01,2013-02-16 06:08:00,
2013-02-16 01:13:00,33.4,-3.3,27.37,SE,143,2.2,2.2,20,0.00,,---,0.00,VWS V14.01,2013-02-16 06:13:00,
2013-02-16 01:18:00,33.4,-3.3,27.37,ESE,123,3.6,3.6,20,0.00,,---,0.00,VWS V14.01,2013-02-16 06:18:00,
2013-02-16 01:23:00,33.3,-0.5,27.37,ENE,66,6.3,8.1,23,0.00,,---,0.00,VWS V14.01,2013-02-16 06:23:00,
2013-02-16 01:28:00,33.1,-0.7,27.37,ESE,112,4.0,10.1,23,0.00,,---,0.00,VWS V14.01,2013-02-16 06:28:00,
2013-02-16 01:33:00,33.1,1.1,27.37,ESE,123,4.0,4.0,25,0.00,,---,0.00,VWS V14.01,2013-02-16 06:33:00,
2013-02-16 01:38:00,33.1,1.1,27.37,East,89,4.0,4.0,25,0.00,,---,0.00,VWS V14.01,2013-02-16 06:38:00,
2013-02-16 01:43:00,32.9,0.9,27.37,SE,130,2.2,4.0,25,0.00,,---,0.00,VWS V14.01,2013-02-16 06:43:00,
2013-02-16 01:48:00,32.9,0.9,27.37,ESE,104,7.6,7.6,25,0.00,,---,0.00,VWS V14.01,2013-02-16 06:48:00,
2013-02-16 01:52:00,32.9,3.4,27.37,SSE,154,6.3,6.3,28,0.00,,---,0.00,VWS V14.01,2013-02-16 06:52:00,
2013-02-16 01:57:00,32.9,0.9,27.37,East,94,4.0,4.0,25,0.00,,---,0.00,VWS V14.01,2013-02-16 06:57:00,
2013-02-16 02:02:00,32.9,0.9,27.37,ESE,103,8.3,8.3,25,0.00,,---,0.00,VWS V14.01,2013-02-16 07:02:00,
2013-02-16 02:07:00,32.7,-1.0,27.34,NE,38,5.4,5.4,23,0.00,,---,0.00,VWS V14.01,2013-02-16 07:07:00,
2013-02-16 02:12:00,32.9,-3.8,27.34,SE,126,8.1,8.1,20,0.00,,---,0.00,VWS V14.01,2013-02-16 07:12:00,
2013-02-16 02:17:00,32.7,-6.1,27.34,SW,226,4.0,4.0,18,0.00,,---,0.00,VWS V14.01,2013-02-16 07:17:00,
2013-02-16 02:22:00,32.9,-5.9,27.34,East,84,2.2,3.6,18,0.00,,---,0.00,VWS V14.01,2013-02-16 07:22:00,
2013-02-16 02:27:00,32.9,-9.7,27.34,NE,55,5.4,13.2,15,0.00,,---,0.00,VWS V14.01,2013-02-16 07:27:00,
2013-02-16 02:32:00,32.9,-9.7,27.34,West,264,3.1,4.5,15,0.00,,---,0.00,VWS V14.01,2013-02-16 07:32:00,
2013-02-16 02:37:00,32.9,-9.7,27.34,NE,43,0.0,2.7,15,0.00,,---,0.00,VWS V14.01,2013-02-16 07:37:00,
2013-02-16 02:42:00,32.9,-9.7,27.34,East,86,3.6,3.6,15,0.00,,---,0.00,VWS V14.01,2013-02-16 07:42:00,
2013-02-16 02:47:00,32.9,-9.7,27.34,North,0,3.1,3.6,15,0.00,,---,0.00,VWS V14.01,2013-02-16 07:47:00,
2013-02-16 02:52:00,32.9,-9.7,27.34,NW,304,4.0,4.0,15,0.00,,---,0.00,VWS V14.01,2013-02-16 07:52:00,
2013-02-16 02:57:00,32.9,-9.7,27.34,WNW,298,5.4,5.4,15,0.00,,---,0.00,VWS V14.01,2013-02-16 07:57:00,
2013-02-16 03:02:00,32.9,-9.7,27.34,SE,136,5.8,5.8,15,0.00,,---,0.00,VWS V14.01,2013-02-16 08:02:00,
2013-02-16 03:07:00,32.9,-9.7,27.34,East,96,5.4,5.4,15,0.00,,---,0.00,VWS V14.01,2013-02-16 08:07:00,
2013-02-16 03:12:00,32.7,-9.8,27.34,WSW,248,2.7,3.1,15,0.00,,---,0.00,VWS V14.01,2013-02-16 08:12:00,
2013-02-16 03:17:00,32.7,-9.8,27.34,WNW,296,3.6,3.6,15,0.00,,---,0.00,VWS V14.01,2013-02-16 08:17:00,
2013-02-16 03:22:00,32.7,-9.8,27.34,SW,226,5.4,5.8,15,0.00,,---,0.00,VWS V14.01,2013-02-16 08:22:00,
2013-02-16 03:27:00,32.5,-10.0,27.34,NW,311,2.7,3.1,15,0.00,,---,0.00,VWS V14.01,2013-02-16 08:27:00,
2013-02-16 03:32:00,32.5,-10.0,27.34,ESE,117,4.0,5.4,15,0.00,,---,0.00,VWS V14.01,2013-02-16 08:32:00,
2013-02-16 03:37:00,32.5,-10.0,27.34,ENE,68,6.3,6.3,15,0.00,,---,0.00,VWS V14.01,2013-02-16 08:37:00,
2013-02-16 03:42:00,32.5,-10.0,27.34,North,0,5.4,12.8,15,0.00,,---,0.00,VWS V14.01,2013-02-16 08:42:00,
2013-02-16 03:47:00,32.5,-10.0,27.34,ENE,60,5.4,8.1,15,0.00,,---,0.00,VWS V14.01,2013-02-16 08:47:00,
2013-02-16 03:52:00,32.5,-10.0,27.34,East,82,4.0,4.0,15,0.00,,---,0.00,VWS V14.01,2013-02-16 08:52:00,
2013-02-16 03:57:00,32.5,-10.0,27.34,West,273,2.2,3.1,15,0.00,,---,0.00,VWS V14.01,2013-02-16 08:57:00,
2013-02-16 04:02:00,32.5,-10.0,27.34,SE,135,5.4,5.8,15,0.00,,---,0.00,VWS V14.01,2013-02-16 09:02:00,
2013-02-16 04:07:00,32.5,-10.0,27.32,WNW,300,3.1,5.8,15,0.00,,---,0.00,VWS V14.01,2013-02-16 09:07:00,
2013-02-16 04:12:00,32.5,-10.0,27.32,NNW,343,2.7,6.3,15,0.00,,---,0.00,VWS V14.01,2013-02-16 09:12:00,
2013-02-16 04:17:00,32.4,-10.1,27.32,NNW,341,3.6,6.3,15,0.00,,---,0.00,VWS V14.01,2013-02-16 09:17:00,
2013-02-16 04:22:00,32.4,-10.1,27.32,NE,45,5.4,5.4,15,0.00,,---,0.00,VWS V14.01,2013-02-16 09:22:00,
2013-02-16 04:27:00,32.4,-10.1,27.32,SW,229,3.6,6.3,15,0.00,,---,0.00,VWS V14.01,2013-02-16 09:27:00,
2013-02-16 04:32:00,32.4,-10.1,27.32,SE,132,7.6,7.6,15,0.00,,---,0.00,VWS V14.01,2013-02-16 09:32:00,
2013-02-16 04:37:00,32.4,-10.1,27.32,ENE,59,3.6,3.6,15,0.00,,---,0.00,VWS V14.01,2013-02-16 09:37:00,
2013-02-16 04:42:00,32.4,-10.1,27.32,SSE,158,3.1,3.1,15,0.00,,---,0.00,VWS V14.01,2013-02-16 09:42:00,
2013-02-16 04:47:00,32.4,-10.1,27.32,East,80,5.4,5.4,15,0.00,,---,0.00,VWS V14.01,2013-02-16 09:47:00,
2013-02-16 04:52:00,32.4,-10.1,27.32,ESE,104,3.1,8.7,15,0.00,,---,0.00,VWS V14.01,2013-02-16 09:52:00,
2013-02-16 04:57:00,32.4,-10.1,27.32,NW,306,2.7,4.0,15,0.00,,---,0.00,VWS V14.01,2013-02-16 09:57:00,
2013-02-16 05:02:00,32.4,-10.1,27.32,ENE,62,4.0,4.5,15,0.00,,---,0.00,VWS V14.01,2013-02-16 10:02:00,
2013-02-16 05:07:00,32.4,-10.1,27.32,North,4,2.2,5.4,15,0.00,,---,0.00,VWS V14.01,2013-02-16 10:07:00,
2013-02-16 05:12:00,32.4,-10.1,27.32,North,357,3.1,7.2,15,0.00,,---,0.00,VWS V14.01,2013-02-16 10:12:00,
2013-02-16 05:17:00,32.4,-10.1,27.32,North,7,4.9,6.3,15,0.00,,---,0.00,VWS V14.01,2013-02-16 10:17:00,
2013-02-16 05:22:00,32.4,-10.1,27.32,East,87,3.1,4.9,15,0.00,,---,0.00,VWS V14.01,2013-02-16 10:22:00,
2013-02-16 05:27:00,32.5,-10.0,27.32,WNW,301,4.0,4.0,15,0.00,,---,0.00,VWS V14.01,2013-02-16 10:27:00,
2013-02-16 05:32:00,32.4,-10.1,27.32,West,280,2.7,5.8,15,0.00,,---,0.00,VWS V14.01,2013-02-16 10:32:00,
2013-02-16 05:37:00,32.4,-10.1,27.32,East,94,2.2,2.7,15,0.00,,---,0.00,VWS V14.01,2013-02-16 10:37:00,
2013-02-16 05:42:00,32.4,-10.1,27.32,WNW,283,2.2,2.7,15,0.00,,---,0.00,VWS V14.01,2013-02-16 10:42:00,
2013-02-16 05:47:00,32.4,-10.1,27.32,ENE,64,3.1,4.9,15,0.00,,---,0.00,VWS V14.01,2013-02-16 10:47:00,
2013-02-16 05:52:00,32.4,-10.1,27.32,ESE,110,4.0,5.8,15,0.00,,---,0.00,VWS V14.01,2013-02-16 10:52:00,
2013-02-16 05:57:00,32.4,-10.1,27.32,SSE,152,3.1,3.1,15,0.00,,---,0.00,VWS V14.01,2013-02-16 10:57:00,
2013-02-16 06:02:00,32.4,-10.1,27.32,ESE,104,6.3,6.3,15,0.00,,---,0.00,VWS V14.01,2013-02-16 11:02:00,
2013-02-16 06:07:00,32.4,-13.0,27.32,SE,138,5.8,5.8,13,0.00,,---,0.00,VWS V14.01,2013-02-16 11:07:00,
2013-02-16 06:12:00,32.4,-10.1,27.32,SE,143,6.3,6.3,15,0.00,,---,0.00,VWS V14.01,2013-02-16 11:12:00,
2013-02-16 06:17:00,32.4,-13.0,27.32,WSW,250,0.0,2.2,13,0.00,,---,0.00,VWS V14.01,2013-02-16 11:17:00,
2013-02-16 06:22:00,32.4,-13.0,27.32,NW,313,2.7,3.1,13,0.00,,---,0.00,VWS V14.01,2013-02-16 11:22:00,
2013-02-16 06:27:00,32.4,-10.1,27.32,SE,127,2.2,2.7,15,0.00,,---,0.00,VWS V14.01,2013-02-16 11:27:00,
2013-02-16 06:32:00,32.4,-10.1,27.32,SE,145,3.6,3.6,15,0.00,,---,0.00,VWS V14.01,2013-02-16 11:32:00,
2013-02-16 06:37:00,32.4,-10.1,27.32,SE,145,0.0,0.0,15,0.00,,---,0.00,VWS V14.01,2013-02-16 11:37:00,
2013-02-16 06:42:00,32.4,-10.1,27.32,NE,52,3.6,3.6,15,0.00,,---,0.00,VWS V14.01,2013-02-16 11:42:00,
2013-02-16 06:47:00,32.4,-10.1,27.32,SE,140,2.2,3.1,15,0.00,,---,0.00,VWS V14.01,2013-02-16 11:47:00,
2013-02-16 06:52:00,32.2,-10.3,27.32,South,186,0.0,0.0,15,0.00,,---,0.00,VWS V14.01,2013-02-16 11:52:00,
2013-02-16 06:57:00,32.2,-10.3,27.32,ESE,108,2.7,3.6,15,0.00,,---,0.00,VWS V14.01,2013-02-16 11:57:00,
2013-02-16 07:02:00,32.2,-10.3,27.32,ESE,115,3.1,3.6,15,0.00,,---,0.00,VWS V14.01,2013-02-16 12:02:00,
2013-02-16 07:07:00,32.2,-10.3,27.32,SE,129,0.0,0.0,15,0.00,,---,0.00,VWS V14.01,2013-02-16 12:07:00,
2013-02-16 07:12:00,32.2,-10.3,27.32,SW,228,0.0,0.0,15,0.00,,---,0.00,VWS V14.01,2013-02-16 12:12:00,
2013-02-16 07:17:00,32.2,-10.3,27.32,East,88,2.7,3.6,15,0.00,,---,0.00,VWS V14.01,2013-02-16 12:17:00,
2013-02-16 07:22:00,32.2,-6.6,27.32,East,99,0.0,2.2,18,0.00,,---,0.00,VWS V14.01,2013-02-16 12:22:00,
2013-02-16 07:27:00,32.2,-6.6,27.32,East,99,0.0,0.0,18,0.00,,---,0.00,VWS V14.01,2013-02-16 12:27:00,
2013-02-16 07:32:00,32.2,-6.6,27.32,East,87,2.7,2.7,18,0.00,,---,0.00,VWS V14.01,2013-02-16 12:32:00,
2013-02-16 07:37:00,32.4,-6.4,27.32,SE,127,0.0,0.0,18,0.00,,---,0.00,VWS V14.01,2013-02-16 12:37:00,
2013-02-16 07:42:00,32.4,-6.4,27.32,SW,235,2.7,2.7,18,0.00,,---,0.00,VWS V14.01,2013-02-16 12:42:00,
2013-02-16 07:47:00,32.2,-6.6,27.32,WNW,299,0.0,0.0,18,0.00,,---,0.00,VWS V14.01,2013-02-16 12:47:00,
2013-02-16 07:52:00,32.2,-4.4,27.32,WSW,258,2.2,2.7,20,0.00,,---,0.00,VWS V14.01,2013-02-16 12:52:00,
2013-02-16 07:57:00,32.0,-4.5,27.32,ENE,71,5.8,5.8,20,0.00,,---,0.00,VWS V14.01,2013-02-16 12:57:00,
2013-02-16 08:02:00,32.0,-1.6,27.32,ENE,75,3.6,4.0,23,0.00,,---,0.00,VWS V14.01,2013-02-16 13:02:00,
2013-02-16 08:07:00,32.0,-1.6,27.32,NW,304,0.0,2.2,23,0.00,,---,0.00,VWS V14.01,2013-02-16 13:07:00,
2013-02-16 08:12:00,32.0,-1.6,27.32,East,89,3.1,3.1,23,0.00,,---,0.00,VWS V14.01,2013-02-16 13:12:00,
2013-02-16 08:17:00,32.0,0.2,27.32,ESE,118,0.0,3.6,25,0.00,,---,0.00,VWS V14.01,2013-02-16 13:17:00,
2013-02-16 08:22:00,32.0,0.2,27.32,West,261,0.0,0.0,25,0.00,,---,0.00,VWS V14.01,2013-02-16 13:22:00,
2013-02-16 08:27:00,32.0,0.2,27.32,East,91,0.0,0.0,25,0.00,,---,0.00,VWS V14.01,2013-02-16 13:27:00,
2013-02-16 08:32:00,32.2,0.3,27.32,South,191,0.0,0.0,25,0.00,,---,0.00,VWS V14.01,2013-02-16 13:32:00,
2013-02-16 08:37:00,32.2,0.3,27.32,SE,133,0.0,2.7,25,0.00,,---,0.00,VWS V14.01,2013-02-16 13:37:00,
2013-02-16 08:42:00,32.5,3.1,27.32,SE,133,2.2,2.2,28,0.00,,---,0.00,VWS V14.01,2013-02-16 13:42:00,
2013-02-16 08:47:00,32.5,3.1,27.32,East,98,4.9,4.9,28,0.00,,---,0.00,VWS V14.01,2013-02-16 13:47:00,
2013-02-16 08:52:00,32.7,3.2,27.32,SE,128,3.1,3.1,28,0.00,,---,0.00,VWS V14.01,2013-02-16 13:52:00,
2013-02-16 08:57:00,32.9,3.4,27.32,SSE,151,4.9,5.4,28,0.00,,---,0.00,VWS V14.01,2013-02-16 13:57:00,
2013-02-16 09:02:00,33.1,3.5,27.32,SE,137,0.0,0.0,28,0.00,,---,0.00,VWS V14.01,2013-02-16 14:02:00,
2013-02-16 09:07:00,33.1,1.1,27.32,ENE,74,2.7,3.1,25,0.00,,---,0.00,VWS V14.01,2013-02-16 14:07:00,
2013-02-16 09:12:00,32.9,0.9,27.32,ESE,114,0.0,2.2,25,0.00,,---,0.00,VWS V14.01,2013-02-16 14:12:00,
2013-02-16 09:17:00,32.9,-0.8,27.32,WNW,284,0.0,2.7,23,0.00,,---,0.00,VWS V14.01,2013-02-16 14:17:00,
2013-02-16 09:22:00,32.7,-1.0,27.32,ESE,114,0.0,0.0,23,0.00,,---,0.00,VWS V14.01,2013-02-16 14:22:00,
2013-02-16 09:27:00,32.7,-3.9,27.32,WNW,301,2.7,2.7,20,0.00,,---,0.00,VWS V14.01,2013-02-16 14:27:00,
2013-02-16 09:32:00,32.4,-6.4,27.32,NW,306,2.2,2.2,18,0.00,,---,0.00,VWS V14.01,2013-02-16 14:32:00,
2013-02-16 09:37:00,32.5,-4.1,27.32,ENE,71,2.2,2.2,20,0.00,,---,0.00,VWS V14.01,2013-02-16 14:37:00,
2013-02-16 09:42:00,32.7,-3.9,27.32,ESE,103,3.1,3.1,20,0.00,,---,0.00,VWS V14.01,2013-02-16 14:42:00,
2013-02-16 09:47:00,33.3,-0.5,27.32,ESE,112,0.0,0.0,23,0.00,,---,0.00,VWS V14.01,2013-02-16 14:47:00,
2013-02-16 09:52:00,33.8,-3.0,27.29,WSW,255,0.0,3.1,20,0.00,,---,0.00,VWS V14.01,2013-02-16 14:52:00,
2013-02-16 09:57:00,34.0,-6.2,27.29,SW,232,0.0,2.7,17,0.00,,---,0.00,VWS V14.01,2013-02-16 14:57:00,
2013-02-16 10:02:00,34.0,-6.2,27.29,SW,234,0.0,3.1,17,0.00,,---,0.00,VWS V14.01,2013-02-16 15:02:00,
2013-02-16 10:07:00,34.0,-8.8,27.32,SE,131,2.2,2.7,15,0.00,,---,0.00,VWS V14.01,2013-02-16 15:07:00,
2013-02-16 10:12:00,34.0,-8.8,27.32,ENE,64,2.7,3.1,15,0.00,,---,0.00,VWS V14.01,2013-02-16 15:12:00,
2013-02-16 10:17:00,33.8,-8.9,27.32,NW,310,5.4,5.4,15,0.00,,---,0.00,VWS V14.01,2013-02-16 15:17:00,
2013-02-16 10:22:00,33.8,-13.4,27.29,NE,44,4.0,4.0,12,0.00,,---,0.00,VWS V14.01,2013-02-16 15:22:00,
2013-02-16 10:27:00,33.4,-12.1,27.29,SW,220,3.1,3.1,13,0.00,,---,0.00,VWS V14.01,2013-02-16 15:27:00,
2013-02-16 10:32:00,33.3,-12.3,27.29,North,353,2.7,2.7,13,0.00,,---,0.00,VWS V14.01,2013-02-16 15:32:00,
2013-02-16 10:37:00,33.1,-12.4,27.29,ENE,69,2.2,5.8,13,0.00,,---,0.00,VWS V14.01,2013-02-16 15:37:00,
2013-02-16 10:42:00,32.9,-12.6,27.29,WNW,299,3.6,3.6,13,0.00,,---,0.00,VWS V14.01,2013-02-16 15:42:00,
2013-02-16 10:47:00,32.7,-12.7,27.29,North,5,2.2,2.2,13,0.00,,---,0.00,VWS V14.01,2013-02-16 15:47:00,
2013-02-16 10:52:00,32.7,-12.7,27.29,WNW,283,4.9,5.8,13,0.00,,---,0.00,VWS V14.01,2013-02-16 15:52:00,
2013-02-16 10:57:00,32.7,-12.7,27.29,North,3,3.1,3.1,13,0.00,,---,0.00,VWS V14.01,2013-02-16 15:57:00,
2013-02-16 11:02:00,32.5,-12.8,27.29,WNW,302,3.1,3.1,13,0.00,,---,0.00,VWS V14.01,2013-02-16 16:02:00,
2013-02-16 11:07:00,32.4,-13.0,27.29,NE,39,0.0,3.6,13,0.00,,---,0.00,VWS V14.01,2013-02-16 16:07:00,
2013-02-16 11:12:00,32.2,-10.3,27.29,NW,314,0.0,0.0,15,0.00,,---,0.00,VWS V14.01,2013-02-16 16:12:00,
2013-02-16 11:17:00,32.2,-10.3,27.29,NNW,335,2.2,2.2,15,0.00,,---,0.00,VWS V14.01,2013-02-16 16:17:00,
2013-02-16 11:22:00,32.4,-6.4,27.29,NE,51,3.6,3.6,18,0.00,,---,0.00,VWS V14.01,2013-02-16 16:22:00,
2013-02-16 11:27:00,32.5,-4.1,27.29,SE,127,4.0,4.0,20,0.00,,---,0.00,VWS V14.01,2013-02-16 16:27:00,
2013-02-16 11:32:00,32.7,-1.0,27.29,SW,215,2.2,4.0,23,0.00,,---,0.00,VWS V14.01,2013-02-16 16:32:00,
2013-02-16 11:37:00,32.7,-1.0,27.29,NNW,344,0.0,2.7,23,0.00,,---,0.00,VWS V14.01,2013-02-16 16:37:00,
2013-02-16 11:42:00,32.9,0.9,27.29,East,101,3.6,3.6,25,0.00,,---,0.00,VWS V14.01,2013-02-16 16:42:00,
2013-02-16 11:47:00,33.1,1.1,27.29,NNE,12,0.0,2.7,25,0.00,,---,0.00,VWS V14.01,2013-02-16 16:47:00,
2013-02-16 11:52:00,32.7,0.8,27.29,ENE,68,2.7,4.9,25,0.00,,---,0.00,VWS V14.01,2013-02-16 16:52:00,
2013-02-16 11:57:00,32.5,0.6,27.29,North,2,3.1,3.1,25,0.00,,---,0.00,VWS V14.01,2013-02-16 16:57:00,
2013-02-16 12:02:00,32.2,0.3,27.29,WNW,293,3.6,3.6,25,0.00,,---,0.00,VWS V14.01,2013-02-16 17:02:00,
2013-02-16 12:07:00,31.8,0.0,27.29,WNW,291,3.6,4.9,25,0.00,,---,0.00,VWS V14.01,2013-02-16 17:07:00,
2013-02-16 12:12:00,32.0,4.1,27.29,NE,43,2.2,2.2,30,0.00,,---,0.00,VWS V14.01,2013-02-16 17:12:00,
2013-02-16 12:17:00,32.4,5.1,27.29,NE,40,0.0,0.0,31,0.00,,---,0.00,VWS V14.01,2013-02-16 17:17:00,
2013-02-16 12:22:00,32.5,5.3,27.29,ENE,77,3.6,4.0,31,0.00,,---,0.00,VWS V14.01,2013-02-16 17:22:00,
2013-02-16 12:27:00,32.7,4.7,27.29,SSE,162,3.1,4.0,30,0.00,,---,0.00,VWS V14.01,2013-02-16 17:27:00,
2013-02-16 12:32:00,32.7,0.8,27.29,SSE,166,0.0,2.7,25,0.00,,---,0.00,VWS V14.01,2013-02-16 17:32:00,
2013-02-16 12:37:00,32.5,-4.1,27.26,NW,314,5.8,5.8,20,0.00,,---,0.00,VWS V14.01,2013-02-16 17:37:00,
2013-02-16 12:42:00,32.4,-1.3,27.26,ESE,114,4.0,4.0,23,0.00,,---,0.00,VWS V14.01,2013-02-16 17:42:00,
2013-02-16 12:47:00,32.5,-1.1,27.26,SE,135,4.0,4.0,23,0.00,,---,0.00,VWS V14.01,2013-02-16 17:47:00,
2013-02-16 12:52:00,32.9,-3.8,27.26,SE,130,4.0,5.8,20,0.00,,---,0.00,VWS V14.01,2013-02-16 17:52:00,
2013-02-16 12:57:00,33.1,-5.8,27.26,SSE,163,2.7,3.6,18,0.00,,---,0.00,VWS V14.01,2013-02-16 17:57:00,
2013-02-16 13:02:00,33.1,-9.5,27.26,ENE,70,3.1,3.6,15,0.00,,---,0.00,VWS V14.01,2013-02-16 18:02:00,
2013-02-16 13:07:00,32.7,-9.8,27.26,ESE,105,8.7,8.7,15,0.00,,---,0.00,VWS V14.01,2013-02-16 18:07:00,
2013-02-16 13:12:00,32.5,-12.8,27.26,North,353,3.6,4.0,13,0.00,,---,0.00,VWS V14.01,2013-02-16 18:12:00,
2013-02-16 13:17:00,32.4,-10.1,27.26,ESE,123,8.1,8.1,15,0.00,,---,0.00,VWS V14.01,2013-02-16 18:17:00,
2013-02-16 13:22:00,32.5,-12.8,27.26,North,5,3.6,3.6,13,0.00,,---,0.00,VWS V14.01,2013-02-16 18:22:00,
2013-02-16 13:27:00,32.7,-12.7,27.26,WNW,288,3.6,3.6,13,0.00,,---,0.00,VWS V14.01,2013-02-16 18:27:00,
2013-02-16 13:32:00,32.5,-12.8,27.26,SE,125,3.6,3.6,13,0.00,,---,0.00,VWS V14.01,2013-02-16 18:32:00,
2013-02-16 13:37:00,32.5,-12.8,27.23,SE,141,4.0,4.0,13,0.00,,---,0.00,VWS V14.01,2013-02-16 18:37:00,
2013-02-16 13:42:00,33.3,-12.3,27.23,ENE,62,3.1,3.1,13,0.00,,---,0.00,VWS V14.01,2013-02-16 18:42:00,
2013-02-16 13:47:00,33.8,-13.4,27.23,NW,309,2.7,3.1,12,0.00,,---,0.00,VWS V14.01,2013-02-16 18:47:00,
2013-02-16 13:52:00,34.0,-13.3,27.26,ENE,74,5.4,5.4,12,0.00,,---,0.00,VWS V14.01,2013-02-16 18:52:00,
2013-02-16 13:57:00,33.6,-12.0,27.26,ESE,123,2.2,5.4,13,0.00,,---,0.00,VWS V14.01,2013-02-16 18:57:00,
2013-02-16 14:02:00,33.6,-12.0,27.26,SE,126,3.6,3.6,13,0.00,,---,0.00,VWS V14.01,2013-02-16 19:02:00,
2013-02-16 14:07:00,33.6,-12.0,27.23,SE,145,5.4,5.4,13,0.00,,---,0.00,VWS V14.01,2013-02-16 19:07:00,
2013-02-16 14:12:00,33.6,-12.0,27.23,SE,137,4.0,4.0,13,0.00,,---,0.00,VWS V14.01,2013-02-16 19:12:00,
2013-02-16 14:17:00,34.0,-13.3,27.23,North,350,0.0,0.0,12,0.00,,---,0.00,VWS V14.01,2013-02-16 19:17:00,
2013-02-16 14:22:00,34.3,-13.0,27.23,ENE,64,3.1,7.2,12,0.00,,---,0.00,VWS V14.01,2013-02-16 19:22:00,
2013-02-16 14:27:00,34.2,-13.1,27.23,SSW,193,5.4,5.4,12,0.00,,---,0.00,VWS V14.01,2013-02-16 19:27:00,
2013-02-16 14:32:00,33.6,-12.0,27.23,NNW,340,3.6,3.6,13,0.00,,---,0.00,VWS V14.01,2013-02-16 19:32:00,
2013-02-16 14:37:00,32.9,-12.6,27.23,NNW,335,2.7,4.0,13,0.00,,---,0.00,VWS V14.01,2013-02-16 19:37:00,
2013-02-16 14:42:00,32.4,-13.0,27.23,ESE,104,8.3,8.3,13,0.00,,---,0.00,VWS V14.01,2013-02-16 19:42:00,
2013-02-16 14:47:00,32.5,-12.8,27.23,WNW,300,3.6,7.6,13,0.00,,---,0.00,VWS V14.01,2013-02-16 19:47:00,
2013-02-16 14:52:00,32.7,-12.7,27.23,East,93,2.2,6.3,13,0.00,,---,0.00,VWS V14.01,2013-02-16 19:52:00,
2013-02-16 14:57:00,32.7,-12.7,27.23,SW,230,3.1,3.6,13,0.00,,---,0.00,VWS V14.01,2013-02-16 19:57:00,
2013-02-16 15:02:00,33.1,-12.4,27.23,ENE,69,16.3,16.3,13,0.00,,---,0.00,VWS V14.01,2013-02-16 20:02:00,
2013-02-16 15:07:00,34.0,-13.3,27.23,WNW,282,4.0,5.8,12,0.00,,---,0.00,VWS V14.01,2013-02-16 20:07:00,
2013-02-16 15:12:00,35.4,-12.1,27.23,SE,142,7.6,7.6,12,0.00,,---,0.00,VWS V14.01,2013-02-16 20:12:00,
2013-02-16 15:17:00,35.8,-11.9,27.23,West,264,3.6,5.4,12,0.00,,---,0.00,VWS V14.01,2013-02-16 20:17:00,
2013-02-16 15:22:00,35.8,-11.9,27.23,NNE,12,6.7,11.9,12,0.00,,---,0.00,VWS V14.01,2013-02-16 20:22:00,
2013-02-16 15:27:00,35.6,-12.0,27.23,NE,53,5.8,10.5,12,0.00,,---,0.00,VWS V14.01,2013-02-16 20:27:00,
2013-02-16 15:32:00,36.0,-11.7,27.23,ESE,117,4.9,7.6,12,0.00,,---,0.00,VWS V14.01,2013-02-16 20:32:00,
2013-02-16 15:37:00,35.6,-12.0,27.23,ENE,68,5.4,6.3,12,0.00,,---,0.00,VWS V14.01,2013-02-16 20:37:00,
2013-02-16 15:42:00,36.3,-11.4,27.23,SSE,147,12.8,13.2,12,0.00,,---,0.00,VWS V14.01,2013-02-16 20:42:00,
2013-02-16 15:47:00,37.8,-12.0,27.23,WSW,258,3.6,5.8,11,0.00,,---,0.00,VWS V14.01,2013-02-16 20:47:00,
2013-02-16 15:52:00,37.4,-12.3,27.23,NE,54,2.7,4.0,11,0.00,,---,0.00,VWS V14.01,2013-02-16 20:52:00,
2013-02-16 15:57:00,36.3,-11.4,27.23,SSE,155,3.6,4.0,12,0.00,,---,0.00,VWS V14.01,2013-02-16 20:57:00,
2013-02-16 16:02:00,36.3,-11.4,27.23,SE,126,3.6,4.5,12,0.00,,---,0.00,VWS V14.01,2013-02-16 21:02:00,
2013-02-16 16:07:00,36.7,-11.1,27.26,SSW,199,6.3,7.6,12,0.00,,---,0.00,VWS V14.01,2013-02-16 21:07:00,
2013-02-16 16:12:00,36.9,-11.0,27.26,East,100,15.0,15.0,12,0.00,,---,0.00,VWS V14.01,2013-02-16 21:12:00,
2013-02-16 16:17:00,36.9,-11.0,27.26,East,99,8.3,8.7,12,0.00,,---,0.00,VWS V14.01,2013-02-16 21:17:00,
2013-02-16 16:22:00,36.1,-11.6,27.23,SE,139,10.5,10.5,12,0.00,,---,0.00,VWS V14.01,2013-02-16 21:22:00,
2013-02-16 16:27:00,35.1,-12.4,27.23,East,90,5.4,5.8,12,0.00,,---,0.00,VWS V14.01,2013-02-16 21:27:00,
2013-02-16 16:32:00,34.0,-13.3,27.23,East,86,3.1,10.1,12,0.00,,---,0.00,VWS V14.01,2013-02-16 21:32:00,
2013-02-16 16:37:00,33.6,-12.0,27.26,SSE,148,4.9,9.2,13,0.00,,---,0.00,VWS V14.01,2013-02-16 21:37:00,
2013-02-16 16:42:00,33.3,-12.3,27.26,SE,129,8.7,8.7,13,0.00,,---,0.00,VWS V14.01,2013-02-16 21:42:00,
2013-02-16 16:47:00,32.4,-13.0,27.26,WSW,252,6.3,6.3,13,0.00,,---,0.00,VWS V14.01,2013-02-16 21:47:00,
2013-02-16 16:52:00,31.1,-14.0,27.26,WSW,257,8.1,8.7,13,0.00,,---,0.00,VWS V14.01,2013-02-16 21:52:00,
2013-02-16 16:57:00,30.0,-14.9,27.26,SE,140,11.9,11.9,13,0.00,,---,0.00,VWS V14.01,2013-02-16 21:57:00,
2013-02-16 17:02:00,29.5,-15.3,27.26,East,83,8.3,8.3,13,0.00,,---,0.00,VWS V14.01,2013-02-16 22:02:00,
2013-02-16 17:07:00,29.1,-15.6,27.29,SSE,152,7.6,8.7,13,0.00,,---,0.00,VWS V14.01,2013-02-16 22:07:00,
2013-02-16 17:12:00,28.8,-15.9,27.29,ESE,119,3.6,5.4,13,0.00,,---,0.00,VWS V14.01,2013-02-16 22:12:00,
2013-02-16 17:17:00,28.6,-16.0,27.29,West,272,7.6,8.3,13,0.00,,---,0.00,VWS V14.01,2013-02-16 22:17:00,
2013-02-16 17:22:00,28.4,-16.2,27.29,South,183,3.6,4.5,13,0.00,,---,0.00,VWS V14.01,2013-02-16 22:22:00,
2013-02-16 17:27:00,28.4,-16.2,27.29,ESE,115,4.0,4.0,13,0.00,,---,0.00,VWS V14.01,2013-02-16 22:27:00,
2013-02-16 17:32:00,28.4,-16.2,27.29,SE,128,3.6,3.6,13,0.00,,---,0.00,VWS V14.01,2013-02-16 22:32:00,
2013-02-16 17:37:00,28.2,-16.3,27.29,SSE,158,2.2,2.2,13,0.00,,---,0.00,VWS V14.01,2013-02-16 22:37:00,
2013-02-16 17:42:00,28.2,-16.3,27.29,SE,140,2.7,3.6,13,0.00,,---,0.00,VWS V14.01,2013-02-16 22:42:00,
2013-02-16 17:47:00,28.4,-16.2,27.29,ENE,61,8.1,12.8,13,0.00,,---,0.00,VWS V14.01,2013-02-16 22:47:00,
2013-02-16 17:52:00,28.2,-16.3,27.29,NE,44,5.4,5.4,13,0.00,,---,0.00,VWS V14.01,2013-02-16 22:52:00,
2013-02-16 17:57:00,27.9,-16.6,27.29,SSE,156,6.3,6.3,13,0.00,,---,0.00,VWS V14.01,2013-02-16 22:57:00,
2013-02-16 18:02:00,27.7,-16.7,27.29,ENE,78,5.8,6.3,13,0.00,,---,0.00,VWS V14.01,2013-02-16 23:02:00,
2013-02-16 18:07:00,27.5,-16.9,27.29,ESE,117,5.8,5.8,13,0.00,,---,0.00,VWS V14.01,2013-02-16 23:07:00,
2013-02-16 18:12:00,27.5,-16.9,27.29,ENE,61,5.4,5.4,13,0.00,,---,0.00,VWS V14.01,2013-02-16 23:12:00,
2013-02-16 18:17:00,27.3,-17.0,27.29,ESE,118,5.8,5.8,13,0.00,,---,0.00,VWS V14.01,2013-02-16 23:17:00,
2013-02-16 18:22:00,27.0,-17.3,27.29,SE,140,7.6,7.6,13,0.00,,---,0.00,VWS V14.01,2013-02-16 23:22:00,
2013-02-16 18:27:00,26.8,-17.5,27.29,SE,130,7.6,8.1,13,0.00,,---,0.00,VWS V14.01,2013-02-16 23:27:00,
2013-02-16 18:32:00,26.6,-16.2,27.29,NNE,16,5.8,5.8,14,0.00,,---,0.00,VWS V14.01,2013-02-16 23:32:00,
2013-02-16 18:37:00,26.2,-16.5,27.29,ESE,117,4.0,4.9,14,0.00,,---,0.00,VWS V14.01,2013-02-16 23:37:00,
2013-02-16 18:42:00,26.1,-16.6,27.29,SE,125,6.7,6.7,14,0.00,,---,0.00,VWS V14.01,2013-02-16 23:42:00,
2013-02-16 18:47:00,26.1,-16.6,27.29,ESE,120,3.6,4.0,14,0.00,,---,0.00,VWS V14.01,2013-02-16 23:47:00,
2013-02-16 18:52:00,25.9,-16.8,27.29,SE,125,5.8,5.8,14,0.00,,---,0.00,VWS V14.01,2013-02-16 23:52:00,
2013-02-16 18:57:00,25.9,-16.8,27.29,SE,131,4.0,4.0,14,0.00,,---,0.00,VWS V14.01,2013-02-16 23:57:00,
2013-02-16 19:02:00,25.9,-16.8,27.29,East,98,3.6,3.6,14,0.00,,---,0.00,VWS V14.01,2013-02-17 00:02:00,
2013-02-16 19:07:00,26.1,-16.6,27.29,ENE,64,2.7,2.7,14,0.00,,---,0.00,VWS V14.01,2013-02-17 00:07:00,
2013-02-16 19:12:00,26.1,-16.6,27.29,SSE,162,5.4,5.4,14,0.00,,---,0.00,VWS V14.01,2013-02-17 00:12:00,
2013-02-16 19:17:00,26.1,-16.6,27.29,SSW,206,11.9,11.9,14,0.00,,---,0.00,VWS V14.01,2013-02-17 00:17:00,
2013-02-16 19:22:00,25.9,-16.8,27.32,West,268,4.9,5.8,14,0.00,,---,0.00,VWS V14.01,2013-02-17 00:22:00,
2013-02-16 19:27:00,25.7,-16.9,27.32,East,84,9.6,9.6,14,0.00,,---,0.00,VWS V14.01,2013-02-17 00:27:00,
2013-02-16 19:32:00,25.5,-17.0,27.32,ESE,120,10.1,10.1,14,0.00,,---,0.00,VWS V14.01,2013-02-17 00:32:00,
2013-02-16 19:37:00,25.5,-17.0,27.32,ESE,109,3.1,5.4,14,0.00,,---,0.00,VWS V14.01,2013-02-17 00:37:00,
2013-02-16 19:42:00,25.5,-17.0,27.32,East,90,3.1,3.1,14,0.00,,---,0.00,VWS V14.01,2013-02-17 00:42:00,
2013-02-16 19:47:00,25.5,-17.0,27.32,East,83,8.7,9.2,14,0.00,,---,0.00,VWS V14.01,2013-02-17 00:47:00,
2013-02-16 19:52:00,25.5,-17.0,27.32,ESE,123,6.3,8.7,14,0.00,,---,0.00,VWS V14.01,2013-02-17 00:52:00,
2013-02-16 19:57:00,25.5,-17.0,27.32,SE,131,3.6,3.6,14,0.00,,---,0.00,VWS V14.01,2013-02-17 00:57:00,
2013-02-16 20:02:00,25.5,-17.0,27.32,SSE,154,5.8,5.8,14,0.00,,---,0.00,VWS V14.01,2013-02-17 01:02:00,
2013-02-16 20:07:00,25.5,-17.0,27.32,East,92,5.4,5.4,14,0.00,,---,0.00,VWS V14.01,2013-02-17 01:07:00,
2013-02-16 20:12:00,25.5,-17.0,27.32,SSW,199,2.7,5.4,14,0.00,,---,0.00,VWS V14.01,2013-02-17 01:12:00,
2013-02-16 20:17:00,25.5,-17.0,27.32,East,90,2.2,3.1,14,0.00,,---,0.00,VWS V14.01,2013-02-17 01:17:00,
2013-02-16 20:22:00,25.7,-16.9,27.32,ESE,114,4.0,4.0,14,0.00,,---,0.00,VWS V14.01,2013-02-17 01:22:00,
2013-02-16 20:27:00,25.7,-16.9,27.32,West,267,4.9,4.9,14,0.00,,---,0.00,VWS V14.01,2013-02-17 01:27:00,
2013-02-16 20:32:00,25.5,-17.0,27.32,South,179,6.3,6.3,14,0.00,,---,0.00,VWS V14.01,2013-02-17 01:32:00,
2013-02-16 20:37:00,25.3,-17.2,27.34,ENE,65,3.6,4.9,14,0.00,,---,0.00,VWS V14.01,2013-02-17 01:37:00,
2013-02-16 20:42:00,25.0,-17.5,27.34,ESE,119,0.0,0.0,14,0.00,,---,0.00,VWS V14.01,2013-02-17 01:42:00,
2013-02-16 20:47:00,24.4,-17.9,27.34,ENE,76,4.0,4.9,14,0.00,,---,0.00,VWS V14.01,2013-02-17 01:47:00,
2013-02-16 20:52:00,24.3,-18.1,27.34,East,89,2.7,4.0,14,0.00,,---,0.00,VWS V14.01,2013-02-17 01:52:00,
2013-02-16 20:57:00,23.9,-18.4,27.34,SE,124,7.6,7.6,14,0.00,,---,0.00,VWS V14.01,2013-02-17 01:57:00,
2013-02-16 21:02:00,23.5,-18.6,27.34,East,79,3.1,7.6,14,0.00,,---,0.00,VWS V14.01,2013-02-17 02:02:00,
2013-02-16 21:07:00,23.4,-15.0,27.34,SE,144,2.2,2.2,17,0.00,,---,0.00,VWS V14.01,2013-02-17 02:07:00,
2013-02-16 21:12:00,23.4,-15.0,27.34,SE,141,3.1,3.1,17,0.00,,---,0.00,VWS V14.01,2013-02-17 02:12:00,
2013-02-16 21:17:00,23.4,-15.0,27.34,SE,126,4.0,4.0,17,0.00,,---,0.00,VWS V14.01,2013-02-17 02:17:00,
2013-02-16 21:22:00,23.4,-12.8,27.34,SSE,154,4.0,4.9,19,0.00,,---,0.00,VWS V14.01,2013-02-17 02:22:00,
2013-02-16 21:27:00,23.4,-12.8,27.34,East,85,4.0,4.0,19,0.00,,---,0.00,VWS V14.01,2013-02-17 02:27:00,
2013-02-16 21:32:00,23.4,-12.8,27.34,ENE,78,0.0,2.2,19,0.00,,---,0.00,VWS V14.01,2013-02-17 02:32:00,
2013-02-16 21:37:00,23.4,-15.0,27.34,SE,138,5.8,5.8,17,0.00,,---,0.00,VWS V14.01,2013-02-17 02:37:00,
2013-02-16 21:42:00,23.4,-15.0,27.34,ENE,63,5.4,6.3,17,0.00,,---,0.00,VWS V14.01,2013-02-17 02:42:00,
2013-02-16 21:47:00,23.4,-15.0,27.34,SE,142,7.6,7.6,17,0.00,,---,0.00,VWS V14.01,2013-02-17 02:47:00,
2013-02-16 21:52:00,23.4,-18.8,27.34,East,91,4.0,4.0,14,0.00,,---,0.00,VWS V14.01,2013-02-17 02:52:00,
2013-02-16 21:57:00,23.5,-18.6,27.34,SE,130,3.6,6.3,14,0.00,,---,0.00,VWS V14.01,2013-02-17 02:57:00,
2013-02-16 22:02:00,23.5,-18.6,27.34,East,94,4.0,4.9,14,0.00,,---,0.00,VWS V14.01,2013-02-17 03:02:00,
2013-02-16 22:07:00,23.5,-18.6,27.34,East,86,4.0,4.0,14,0.00,,---,0.00,VWS V14.01,2013-02-17 03:07:00,
2013-02-16 22:12:00,23.5,-18.6,27.34,South,183,3.1,5.8,14,0.00,,---,0.00,VWS V14.01,2013-02-17 03:12:00,
2013-02-16 22:17:00,23.5,-18.6,27.34,SW,216,10.5,10.5,14,0.00,,---,0.00,VWS V14.01,2013-02-17 03:17:00,
2013-02-16 22:22:00,23.4,-18.8,27.34,SE,142,6.3,6.3,14,0.00,,---,0.00,VWS V14.01,2013-02-17 03:22:00,
2013-02-16 22:27:00,23.2,-18.9,27.34,SE,135,3.6,4.0,14,0.00,,---,0.00,VWS V14.01,2013-02-17 03:27:00,
2013-02-16 22:32:00,22.8,-17.9,27.34,SE,127,7.6,7.6,15,0.00,,---,0.00,VWS V14.01,2013-02-17 03:32:00,
2013-02-16 22:37:00,22.8,-17.9,27.34,ENE,60,7.6,7.6,15,0.00,,---,0.00,VWS V14.01,2013-02-17 03:37:00,
2013-02-16 22:42:00,22.8,-17.9,27.34,East,93,8.3,8.3,15,0.00,,---,0.00,VWS V14.01,2013-02-17 03:42:00,
2013-02-16 22:47:00,22.8,-17.9,27.34,South,178,3.1,5.4,15,0.00,,---,0.00,VWS V14.01,2013-02-17 03:47:00,
2013-02-16 22:52:00,22.8,-17.9,27.34,SSE,148,8.7,8.7,15,0.00,,---,0.00,VWS V14.01,2013-02-17 03:52:00,
2013-02-16 22:57:00,22.8,-17.9,27.34,WSW,245,3.1,8.3,15,0.00,,---,0.00,VWS V14.01,2013-02-17 03:57:00,
2013-02-16 23:02:00,22.8,-17.9,27.34,East,89,8.3,8.3,15,0.00,,---,0.00,VWS V14.01,2013-02-17 04:02:00,
2013-02-16 23:07:00,23.0,-17.8,27.34,SSE,164,2.7,5.4,15,0.00,,---,0.00,VWS V14.01,2013-02-17 04:07:00,
2013-02-16 23:12:00,22.8,-17.9,27.34,South,171,12.8,12.8,15,0.00,,---,0.00,VWS V14.01,2013-02-17 04:12:00,
2013-02-16 23:17:00,22.8,-17.9,27.34,SW,235,4.0,5.8,15,0.00,,---,0.00,VWS V14.01,2013-02-17 04:17:00,
2013-02-16 23:22:00,22.8,-19.2,27.34,ESE,123,3.1,4.0,14,0.00,,---,0.00,VWS V14.01,2013-02-17 04:22:00,
2013-02-16 23:27:00,22.6,-18.0,27.34,SE,128,5.8,5.8,15,0.00,,---,0.00,VWS V14.01,2013-02-17 04:27:00,
2013-02-16 23:32:00,22.6,-18.0,27.34,SSW,200,5.4,8.3,15,0.00,,---,0.00,VWS V14.01,2013-02-17 04:32:00,
2013-02-16 23:37:00,22.5,-18.2,27.34,ESE,120,4.0,4.0,15,0.00,,---,0.00,VWS V14.01,2013-02-17 04:37:00,
2013-02-16 23:42:00,22.5,-19.5,27.34,WSW,252,2.7,6.3,14,0.00,,---,0.00,VWS V14.01,2013-02-17 04:42:00,
2013-02-16 23:47:00,22.5,-19.5,27.34,SSE,162,4.0,4.0,14,0.00,,---,0.00,VWS V14.01,2013-02-17 04:47:00,
2013-02-16 23:52:00,22.3,-19.7,27.34,SE,140,7.6,7.6,14,0.00,,---,0.00,VWS V14.01,2013-02-17 04:52:00,
2013-02-16 23:57:00,22.3,-19.7,27.34,ENE,64,3.1,3.1,14,0.00,,---,0.00,VWS V14.01,2013-02-17 04:57:00,